Regional Weather Roundup
Issued by NWS

Home | Current Version | Previous Version | Graphics & Text | Print | Product List | Glossary Off
Versions: 1 2 3 4 5 6 7 8 9 10 11 12 13 14 15 16 17 18 19 20 21 22 23 24 25 26 27 28 29 30 31 32 33 34 35 36 37 38 39 40 41 42 43 44 45 46 47 48 49 50

000
ASUS43 KTOP 051859
RWRKS

WEATHER ROUNDUP FOR KANSAS
NATIONAL WEATHER SERVICE GOODLAND KS
100 PM CST MON DEC 05 2016

NOTE:  "FAIR" INDICATES FEW OR NO CLOUDS BELOW 12,000 FEET WITH NO
SIGNIFICANT WEATHER AND/OR OBSTRUCTIONS TO VISIBILITY.

KSZ001>006-013>018-027>032-041>047-052000-
NORTHWEST KANSAS

CITY           SKY/WX    TMP DP  RH WIND       PRES   REMARKS
GOODLAND       SUNNY     61  17  18 NE15      29.55F
HAYS           SUNNY     51  32  48 S16       29.61S
HILL CITY      SUNNY     49  27  42 VRB3      29.58F
RUSSELL        SUNNY     54  33  45 S22G35    29.59F
$$

KSZ061>065-074>080-084>089-052000-
SOUTHWEST KANSAS

CITY           SKY/WX    TMP DP  RH WIND       PRES   REMARKS
DODGE CITY     SUNNY     53  28  38 S22G29    29.58F
ELKHART          N/A     64  26  23 W6          N/A
GARDEN CITY    SUNNY     51  31  46 S13       29.56F
GREAT BEND     SUNNY     53  36  52 S26G33    29.60F
LIBERAL        SUNNY     54  34  47 S15       29.57F
$$

KSZ066>073-081>083-090>101-052000-
SOUTHEAST KANSAS

CITY           SKY/WX    TMP DP  RH WIND       PRES   REMARKS
CHANUTE        SUNNY     50  40  68 SE14G21   29.80F
COFFEYVILLE    CLOUDY    49  39  68 S13       29.83F
HUTCHINSON     SUNNY     52  34  50 S20G33    29.69F
MEDICINE LODGE   N/A     51  35  54 S20G29    29.66F
NEWTON         SUNNY     51  35  54 S26G37    29.70F
PARSONS        SUNNY     50  39  66 S10G18    29.81F
WICHITA INTL   SUNNY     52  36  54 S22G35    29.70F
WICHITA JABRA  SUNNY     52  35  52 S23G31    29.71F
WINFIELD       SUNNY     52  39  61 S18G25    29.75F
$$

KSZ007>012-019>026-033>040-048>060-102>105-052000-
NORTHEAST KANSAS

CITY           SKY/WX    TMP DP  RH WIND       PRES   REMARKS
CONCORDIA      SUNNY     51  35  54 S22G33    29.64S
EMPORIA        MOSUNNY   50  39  66 S16G30    29.75F
LAWRENCE       SUNNY     48  40  73 SE21G26   29.80F
MANHATTAN      SUNNY     54  35  48 S22G31    29.70F
OLATHE IND     SUNNY     48  37  65 S17G23    29.80F
OLATHE EXE     SUNNY     47  37  68 S17       29.80F
SALINA         SUNNY     53  34  48 S21G32    29.67F
TOPEKA BILLARD SUNNY     50  40  68 S15       29.77F
TOPEKA FORBES  SUNNY     51  40  65 S20G28    29.76F
$$




USA.gov is the U.S. government's official web portal to all federal, state and local government web resources and services.